TimeCDT,TemperatureF,Dew PointF,Humidity,Sea Level PressureIn,VisibilityMPH,Wind Direction,Wind SpeedMPH,Gust SpeedMPH,PrecipitationIn,Events,Conditions,WindDirDegrees,DateUTC
12:56 AM,50.0,48.0,93,30.13,10.0,Calm,Calm,-,N/A,,Clear,0,2012-10-10 05:56:00
1:56 AM,51.1,48.9,92,30.14,10.0,Calm,Calm,-,N/A,,Scattered Clouds,0,2012-10-10 06:56:00
2:56 AM,51.1,48.9,92,30.12,10.0,South,4.6,-,N/A,,Partly Cloudy,170,2012-10-10 07:56:00
3:56 AM,52.0,48.9,89,30.12,10.0,Calm,Calm,-,N/A,,Scattered Clouds,0,2012-10-10 08:56:00
4:56 AM,54.0,52.0,93,30.13,10.0,Calm,Calm,-,N/A,,Overcast,0,2012-10-10 09:56:00
5:56 AM,55.0,52.0,89,30.16,10.0,NNW,3.5,-,N/A,,Overcast,340,2012-10-10 10:56:00
6:56 AM,57.0,54.0,89,30.17,10.0,Calm,Calm,-,N/A,,Overcast,0,2012-10-10 11:56:00
7:56 AM,59.0,55.0,87,30.19,10.0,Calm,Calm,-,N/A,,Overcast,0,2012-10-10 12:56:00
8:56 AM,61.0,55.0,81,30.21,10.0,Calm,Calm,-,N/A,,Overcast,0,2012-10-10 13:56:00
9:56 AM,66.9,55.9,68,30.21,10.0,Variable,4.6,-,N/A,,Mostly Cloudy,0,2012-10-10 14:56:00
10:56 AM,73.0,57.9,59,30.21,10.0,West,8.1,-,N/A,,Mostly Cloudy,280,2012-10-10 15:56:00
11:56 AM,77.0,59.0,54,30.20,10.0,West,10.4,16.1,N/A,,Partly Cloudy,280,2012-10-10 16:56:00
12:56 PM,78.1,60.1,54,30.18,10.0,WNW,10.4,16.1,N/A,,Scattered Clouds,290,2012-10-10 17:56:00
1:56 PM,80.1,60.1,50,30.16,10.0,West,10.4,-,N/A,,Scattered Clouds,280,2012-10-10 18:56:00
2:56 PM,80.1,60.1,50,30.14,10.0,NW,11.5,-,N/A,,Partly Cloudy,310,2012-10-10 19:56:00
3:56 PM,78.1,59.0,52,30.14,10.0,NW,8.1,-,N/A,,Scattered Clouds,320,2012-10-10 20:56:00
4:56 PM,78.1,60.1,54,30.14,10.0,North,9.2,-,N/A,,Partly Cloudy,350,2012-10-10 21:56:00
5:56 PM,75.0,61.0,62,30.15,10.0,NNW,4.6,-,N/A,,Partly Cloudy,340,2012-10-10 22:56:00
6:56 PM,70.0,61.0,73,30.17,10.0,North,4.6,-,N/A,,Partly Cloudy,360,2012-10-10 23:56:00
7:56 PM,66.9,59.0,76,30.19,10.0,North,4.6,-,N/A,,Clear,360,2012-10-11 00:56:00
8:56 PM,64.9,57.9,78,30.21,10.0,Calm,Calm,-,N/A,,Clear,0,2012-10-11 01:56:00
9:56 PM,63.0,57.9,84,30.24,10.0,Calm,Calm,-,N/A,,Clear,0,2012-10-11 02:56:00
10:56 PM,61.0,57.9,90,30.25,10.0,Calm,Calm,-,N/A,,Clear,0,2012-10-11 03:56:00
11:56 PM,59.0,55.9,90,30.24,10.0,Calm,Calm,-,N/A,,Clear,0,2012-10-11 04:56:00